Flag for Netherlands Weather past 2 weeks in Amsterdam, Netherlands

Now
55 °F

Sprinkles. Passing clouds.


Feels Like: 52 °F
Forecast: 54 / 64 °F
Wind: 12 mph from West

Location: Amsterdam Schiphol Airport

Current Time: Aug 20, 2014 at 9:14:37 AM

Latest Report: Aug 20, 2014 at 8:25 AM


Visibility: N/A

Pressure: 29.95 "Hg

Humidity: 77%

Dew point: 48 °F

Location of AmsterdamLocation

Historic Weather in Amsterdam — Graph

°F

Amsterdam temperature yesterday

Maximum temperature yesterday: 61 °F (at 9:55 AM)
Minimum temperature yesterday: 50 °F (at 12:25 AM)
Average temperature yesterday: 55 °F

Past Weeks' High & Low Weather Summary

 TemperatureHumidityPressure
High75 °F (Aug 5, 1:25 PM)100% (Aug 6, 6:55 PM)30.09 "Hg (Aug 6, 6:55 PM)
Low48 °F (Aug 20, 5:55 AM)44% (Aug 5, 1:25 PM)29.45 "Hg (Aug 10, 6:25 PM)
Average63 °F79%29.81 "Hg
* Reported Aug 5 7:25 AM — Aug 20 7:55 AM, Amsterdam, Weather by CustomWeather, © 2014

Note: Actual official high and low records may vary slightly from our data, if they occured in-between our weather recording intervals... More about our weather records

Advertising

Amsterdam weather history for previous 24 hours

 ConditionsComfort  
Time TempWeatherWind HumidityBarometerVisibility
7:55 AM
Aug 20
55 °FSprinkles. Passing clouds.3 mph82%29.95 "HgN/A
7:25 AM50 °FPassing clouds.3 mph82%29.95 "HgN/A
6:55 AM48 °FPassing clouds.3 mph94%29.95 "HgN/A
6:25 AM48 °FScattered showers. Passing clouds.3 mph87%29.95 "HgN/A
5:55 AM48 °FPassing clouds.6 mph87%29.95 "HgN/A
5:25 AM50 °FPassing clouds.6 mph88%29.95 "HgN/A
4:55 AM50 °FPassing clouds.3 mph88%29.95 "HgN/A
4:25 AM52 °FScattered showers. Passing clouds.2 mph94%29.95 "HgN/A
3:55 AM52 °FSprinkles. Passing clouds.8 mph88%29.92 "HgN/A
3:25 AM50 °FPassing clouds.8 mph94%29.92 "HgN/A
2:55 AM50 °FPassing clouds.6 mph94%29.92 "HgN/A
2:25 AM52 °FPassing clouds.7 mph88%29.92 "HgN/A
1:55 AM54 °FPassing clouds.9 mph88%29.92 "HgN/A
1:25 AM54 °FSprinkles. Passing clouds.8 mph82%29.92 "HgN/A
12:55 AM52 °FSprinkles. Passing clouds.7 mph94%29.92 "HgN/A
12:25 AM52 °FPassing clouds.7 mph94%29.92 "HgN/A
11:55 PM
Aug 19
54 °FSprinkles. Passing clouds.13 mph82%29.92 "HgN/A
11:25 PM54 °FSprinkles. Passing clouds.12 mph88%29.92 "HgN/A
10:55 PM54 °FScattered showers. Passing clouds.9 mph82%29.92 "HgN/A
10:25 PM52 °FScattered showers. Passing clouds.9 mph88%29.89 "HgN/A
9:55 PM54 °FSprinkles. Passing clouds.14 mph88%29.89 "HgN/A
9:25 PM55 °FSprinkles. Passing clouds.13 mph82%29.89 "HgN/A
8:55 PM55 °FSprinkles. Passing clouds.13 mph77%29.89 "HgN/A
8:25 PM55 °FScattered showers. Passing clouds.18 mph77%29.86 "HgN/A
7:55 PM55 °FPassing clouds.16 mph72%29.86 "HgN/A
7:25 PM57 °FPassing clouds.18 mph72%29.86 "HgN/A
6:55 PM57 °FPassing clouds.16 mph72%29.86 "HgN/A
6:25 PM59 °FPassing clouds.14 mph72%29.86 "HgN/A
5:55 PM55 °FSprinkles. Passing clouds.13 mph88%29.86 "HgN/A
5:25 PM55 °FSprinkles. Passing clouds.15 mph82%29.86 "HgN/A
4:55 PM55 °FSprinkles. Passing clouds.13 mph88%29.83 "HgN/A
4:25 PM57 °FSprinkles. Passing clouds.16 mph88%29.83 "HgN/A
3:55 PM57 °FSprinkles. Passing clouds.24 mph77%29.83 "HgN/A
3:25 PM55 °FSprinkles. Broken clouds.15 mph88%29.83 "HgN/A
2:55 PM59 °FScattered clouds.18 mph68%29.80 "HgN/A
2:25 PM59 °FScattered showers. Passing clouds.21 mph72%29.80 "HgN/A
1:55 PM59 °FScattered clouds.15 mph77%29.77 "HgN/A
1:25 PM55 °FSprinkles. Scattered clouds.17 mph82%29.80 "Hg6 mi
12:55 PM57 °FSprinkles. Scattered clouds.18 mph77%29.77 "HgN/A
12:25 PM57 °FSprinkles. Scattered clouds.20 mph77%29.77 "Hg6 mi
11:55 AM59 °FScattered showers. Scattered clouds.21 mph63%29.74 "HgN/A
11:25 AM59 °FPassing clouds.23 mph68%29.74 "HgN/A
10:55 AM61 °FPassing clouds.14 mph68%29.74 "HgN/A
10:25 AM59 °FSprinkles. Scattered clouds.18 mph72%29.74 "HgN/A
9:55 AM61 °FPassing clouds.17 mph68%29.74 "HgN/A
9:25 AM57 °FPassing clouds.13 mph88%29.74 "HgN/A
Weather by CustomWeather, © 2014

See weather overviewHow to use our weather pages